"Pseudo-MPEC" for P125ubD

Created 2025 Jan 20 16:31:14 UT using Find_Orb

Click here for an explanation of pseudo-MPECs

 
 Astrometry: 
     P125ubD* C2025 01 06.43976609 55 37.072+12 10 17.43   ~193V 22.19wXNEOCPF51
     P125ubD  C2025 01 06.45064909 55 36.369+12 10 12.59   ~193V 22.27wXNEOCPF51
     P125ubD  C2025 01 06.46160309 55 35.646+12 10 07.98   ~193V 22.02wXNEOCPF51
     P125ubD  C2025 01 06.47252509 55 34.943+12 10 03.08   ~193V 21.64wXNEOCPF51

Station data:
(F51) Pan-STARRS 1, Haleakala  (N20.707234 W156.255910)  US/Hawaii.
   Observers J. Bulger, T. Lowe, A. Schultz, M. Willman. Measurers K.
   Chambers, S. Chastel, T. de Boer, L. Denneau, J. Fairlamb, H. Flewelling,
   M. Huber, C.-C. Lin, E. Magnier, Y. Ramanjooloo, R. Wainscoat, R. Weryk.
   1.8-m Ritchey-Chrétien + CCD.

Orbital elements:  P125ubD
   Perihelion 2024 May 8.39058 +/- 215 TT =  9:22:26 (JD 2460438.89058)
Epoch 2025 Jan  6.0 TT = JDT 2460681.5   Earth MOID: 0.6103      AutoNEOCP
M  80.62896208 +/- 90               (J2000 ecliptic)
n   0.33234061 +/- 0.34             Peri.   68.32210 +/- 80
a   2.06417780 +/- 1.41             Node   308.68174 +/- 9
e   0.2774325 +/- 0.272             Incl.   23.74295 +/- 25
P   2.96566                H 18.79  G  0.15   U 12.0  SR
q 1.49150773 +/- 1.08    Q 2.63684788 +/- 33.5
From 4 observations 2025 Jan. 6 (47.2 min); mean residual 0".06
Residuals in arcseconds: 
250106 F51  .00   .02+    250106 F51  .09-  .09+    
250106 F51  .05+  .08-    250106 F51  .04+  .04-    

Ephemerides (geocentric):
Date (UTC) HH   RA             Dec           delta  r     elong  mag " sig PA
---- --------  ------------   ------------  ------ ------ -----  --- --------
2025 01 20 17  09 37 13.673   +10 34 41.25  1.2337 2.1746 157.2 21.6  39d  99
2025 01 20 18  09 37 09.943   +10 34 26.14  1.2336 2.1747 157.2 21.6  39d  99
2025 01 20 19  09 37 06.211   +10 34 11.04  1.2336 2.1748 157.3 21.6  39d  99
2025 01 20 20  09 37 02.476   +10 33 55.95  1.2335 2.1749 157.4 21.6  39d  99
2025 01 20 21  09 36 58.739   +10 33 40.87  1.2334 2.1751 157.4 21.6  39d  99
2025 01 20 22  09 36 55.000   +10 33 25.79  1.2333 2.1752 157.5 21.6  39d  99
2025 01 20 23  09 36 51.258   +10 33 10.73  1.2333 2.1753 157.5 21.6  39d  99
2025 01 21 00  09 36 47.515   +10 32 55.68  1.2332 2.1755 157.6 21.6  39d  99
2025 01 21 01  09 36 43.769   +10 32 40.63  1.2331 2.1756 157.6 21.6  39d  99
2025 01 21 02  09 36 40.020   +10 32 25.60  1.2330 2.1757 157.7 21.6  39d  99
2025 01 21 03  09 36 36.270   +10 32 10.57  1.2330 2.1758 157.7 21.6  39d  99
2025 01 21 04  09 36 32.517   +10 31 55.56  1.2329 2.1760 157.8 21.6  39d  99
2025 01 21 05  09 36 28.763   +10 31 40.55  1.2328 2.1761 157.8 21.6  39d  99
2025 01 21 06  09 36 25.006   +10 31 25.56  1.2327 2.1762 157.9 21.6  40d  99
2025 01 21 07  09 36 21.247   +10 31 10.57  1.2327 2.1764 157.9 21.6  40d  99
2025 01 21 08  09 36 17.485   +10 30 55.59  1.2326 2.1765 158.0 21.6  40d  99
2025 01 21 09  09 36 13.722   +10 30 40.63  1.2325 2.1766 158.0 21.6  40d  99
2025 01 21 10  09 36 09.956   +10 30 25.67  1.2325 2.1767 158.1 21.6  40d  99
2025 01 21 11  09 36 06.188   +10 30 10.72  1.2324 2.1769 158.2 21.6  40d  99
2025 01 21 12  09 36 02.418   +10 29 55.79  1.2323 2.1770 158.2 21.6  40d  99
2025 01 21 13  09 35 58.646   +10 29 40.86  1.2322 2.1771 158.3 21.6  40d  99
2025 01 21 14  09 35 54.872   +10 29 25.94  1.2322 2.1773 158.3 21.6  40d  99
2025 01 21 15  09 35 51.095   +10 29 11.03  1.2321 2.1774 158.4 21.6  40d  99
2025 01 21 16  09 35 47.317   +10 28 56.13  1.2320 2.1775 158.4 21.6  40d  99
2025 01 21 17  09 35 43.536   +10 28 41.24  1.2320 2.1776 158.5 21.6  40d  99
2025 01 21 18  09 35 39.754   +10 28 26.36  1.2319 2.1778 158.5 21.6  40d  99
2025 01 21 19  09 35 35.969   +10 28 11.49  1.2318 2.1779 158.6 21.6  40d  99
2025 01 21 20  09 35 32.182   +10 27 56.63  1.2318 2.1780 158.6 21.6  40d  99
2025 01 21 21  09 35 28.393   +10 27 41.78  1.2317 2.1782 158.7 21.6  40d  99
2025 01 21 22  09 35 24.602   +10 27 26.94  1.2316 2.1783 158.7 21.6  40d  99
2025 01 21 23  09 35 20.809   +10 27 12.11  1.2316 2.1784 158.8 21.6  40d  99
2025 01 22 00  09 35 17.014   +10 26 57.28  1.2315 2.1785 158.9 21.6  40d  99
2025 01 22 01  09 35 13.216   +10 26 42.47  1.2315 2.1787 158.9 21.6  40d  99
2025 01 22 02  09 35 09.417   +10 26 27.67  1.2314 2.1788 159.0 21.6  40d  99
2025 01 22 03  09 35 05.616   +10 26 12.87  1.2313 2.1789 159.0 21.6  40d  99
2025 01 22 04  09 35 01.812   +10 25 58.09  1.2313 2.1791 159.1 21.6  40d  99
2025 01 22 05  09 34 58.007   +10 25 43.32  1.2312 2.1792 159.1 21.6  40d  99
2025 01 22 06  09 34 54.199   +10 25 28.55  1.2311 2.1793 159.2 21.6  40d  99
2025 01 22 07  09 34 50.390   +10 25 13.80  1.2311 2.1794 159.2 21.5  40d  99
2025 01 22 08  09 34 46.579   +10 24 59.05  1.2310 2.1796 159.3 21.5  40d  99
2025 01 22 09  09 34 42.765   +10 24 44.32  1.2310 2.1797 159.3 21.5  40d  99
2025 01 22 10  09 34 38.950   +10 24 29.59  1.2309 2.1798 159.4 21.5  41d  99
2025 01 22 11  09 34 35.132   +10 24 14.88  1.2308 2.1800 159.4 21.5  41d  99
2025 01 22 12  09 34 31.313   +10 24 00.17  1.2308 2.1801 159.5 21.5  41d  99
2025 01 22 13  09 34 27.492   +10 23 45.47  1.2307 2.1802 159.5 21.5  41d  99
2025 01 22 14  09 34 23.669   +10 23 30.79  1.2307 2.1803 159.6 21.5  41d  99
2025 01 22 15  09 34 19.843   +10 23 16.11  1.2306 2.1805 159.7 21.5  41d  99
2025 01 22 16  09 34 16.016   +10 23 01.44  1.2306 2.1806 159.7 21.5  41d  99